KE8HFO Weather Reports


time (UTC)temp
F
wind
direction
speed
knots
gust
knots
rain 1hr
in
rain 24hr
in
rain mn
in
humidity
%
barometer
mb
20260504215537 72 342 5.2 12.2 0.00 0.00 0.00 58 1007.5
20260504215036 72 32 6.1 12.2 0.00 0.00 0.00 58 1007.6
20260504214547 72 30 4.3 13.0 0.00 0.00 0.00 59 1007.5
20260504214036 71 15 4.3 13.0 0.00 0.00 0.00 59 1007.6
20260504213536 71 34 4.3 10.4 0.00 0.00 0.00 60 1007.6
20260504213047 70 339 3.5 10.4 0.00 0.00 0.00 62 1007.6
20260504212535 70 19 6.1 10.4 0.00 0.00 0.00 63 1007.5
20260504212033 70 321 6.1 9.6 0.00 0.00 0.00 63 1007.6
20260504211628 70 59 4.3 9.6 0.00 0.00 0.00 63 1007.7
20260504211037 70 54 3.5 9.6 0.00 0.00 0.00 63 1007.5
20260504210534 69 336 3.5 13.9 0.00 0.00 0.00 63 1007.4
20260504210052 69 33 3.5 13.9 0.00 0.00 0.00 63 1007.6
20260504205535 69 49 3.5 10.4 0.00 0.00 0.00 63 1008.0
20260504205035 68 82 4.3 13.0 0.00 0.00 0.00 64 1008.3
20260504204547 68 339 4.3 13.0 0.00 0.00 0.00 66 1008.1
20260504204036 68 94 4.3 13.0 0.00 0.00 0.00 66 1008.6
20260504203535 68 336 6.1 13.0 0.00 0.00 0.00 67 1008.6
20260504203046 68 45 5.2 13.0 0.00 0.00 0.00 65 1008.6
20260504202534 68 96 7.0 11.3 0.00 0.00 0.00 66 1008.3
20260504202033 68 40 4.3 9.6 0.00 0.00 0.00 64 1008.2
20260504201549 68 52 3.5 9.6 0.00 0.00 0.00 66 1008.2
20260504201035 67 140 4.3 10.4 0.00 0.00 0.00 67 1008.2
20260504200536 66 29 5.2 10.4 0.00 0.00 0.00 66 1008.1
20260504200052 66 35 4.3 10.4 0.00 0.00 0.00 68 1008.1
20260504195535 66 26 5.2 10.4 0.00 0.00 0.00 69 1008.4
20260504195034 66 325 4.3 12.2 0.00 0.00 0.00 70 1008.3
20260504194554 66 24 7.0 12.2 0.00 0.00 0.00 69 1008.7
20260504194034 66 39 7.8 12.2 0.00 0.00 0.00 67 1008.5
20260504193537 67 28 7.0 11.3 0.00 0.00 0.00 68 1008.9
20260504193044 67 43 7.0 13.0 0.00 0.00 0.00 67 1009.2
20260504192533 68 26 7.8 13.0 0.00 0.00 0.00 65 1009.6
20260504192034 68 333 5.2 10.4 0.00 0.00 0.00 66 1009.4
20260504191607 68 51 5.2 10.4 0.00 0.00 0.00 65 1009.5
20260504191036 69 350 3.5 13.9 0.00 0.00 0.00 63 1009.4
20260504190534 69 84 5.2 13.9 0.00 0.00 0.00 61 1009.4
20260504185535 69 32 7.0 12.2 0.00 0.00 0.00 61 1009.3
20260504185035 70 55 3.5 12.2 0.00 0.00 0.00 61 1009.0
20260504184552 70 51 6.1 10.4 0.00 0.00 0.00 61 1009.1
20260504184036 70 61 4.3 12.2 0.00 0.00 0.00 61 1009.0
20260504183536 70 68 4.3 12.2 0.00 0.00 0.00 61 1008.9
20260504183047 70 15 5.2 12.2 0.00 0.00 0.00 59 1009.1
20260504182538 70 55 6.1 13.9 0.00 0.00 0.00 62 1009.0
20260504182036 70 36 6.1 13.9 0.00 0.00 0.00 60 1008.6
20260504181553 70 42 6.1 13.9 0.00 0.00 0.00 59 1008.8
20260504181033 70 90 5.2 13.9 0.00 0.00 0.00 59 1008.8
20260504180534 71 50 7.8 13.9 0.00 0.00 0.00 57 1008.7
20260504180045 71 29 6.1 13.0 0.00 0.00 0.00 58 1008.5
20260504175535 71 310 4.3 12.2 0.00 0.00 0.00 59 1008.5
20260504175036 71 56 6.1 12.2 0.00 0.00 0.00 59 1008.8
20260504174548 71 28 7.0 16.5 0.00 0.00 0.00 60 1008.8
20260504174036 70 33 7.0 16.5 0.00 0.00 0.00 56 1008.7
20260504173535 71 290 7.0 13.9 0.00 0.00 0.00 58 1008.8
20260504173054 71 121 4.3 12.2 0.00 0.00 0.00 58 1008.7
20260504172535 71 42 7.0 12.2 0.00 0.00 0.00 59 1008.8
20260504172036 71 53 5.2 13.0 0.00 0.00 0.00 59 1008.6
20260504171548 70 39 5.2 13.0 0.00 0.00 0.00 58 1008.7
20260504171038 70 313 4.3 10.4 0.00 0.00 0.00 59 1008.9
20260504170536 70 131 5.2 10.4 0.00 0.00 0.00 60 1008.8
20260504151037 62 15 6.1 10.4 0.00 0.00 0.00 67 1009.8
20260504150538 62 51 4.3 12.2 0.00 0.00 0.00 68 1009.8
20260504141036 59 33 5.2 9.6 0.00 0.00 0.00 72 1010.2
20260504140535 58 35 2.6 12.2 0.00 0.00 0.00 71 1010.1
20260504130536 54 35 4.3 10.4 0.00 0.00 0.00 72 1010.6
20260504110535 49 53 3.5 7.0 0.00 0.00 0.00 75 1010.2
20260504100535 49 36 1.7 5.2 0.00 0.00 0.00 73 1010.7
20260504081555 50 338 2.6 7.0 0.00 0.00 0.00 71 1011.4
20260504081036 49 30 2.6 7.0 0.00 0.00 0.00 71 1011.3
20260504080537 49 20 2.6 5.2 0.00 0.00 0.00 71 1011.5
20260504050534 52 57 3.5 7.0 0.00 0.00 0.00 66 1012.9
20260504045532 52 22 2.6 7.8 0.00 0.00 0.00 65 1013.1
20260504045032 52 32 3.5 7.8 0.00 0.00 0.00 65 1013.1
20260504044545 52 325 1.7 7.0 0.00 0.00 0.00 65 1013.2
20260504044033 52 56 2.6 7.0 0.00 0.00 0.00 66 1013.2
20260504043537 52 38 2.6 5.2 0.00 0.00 0.00 66 1013.2
20260504043048 52 51 1.7 4.3 0.00 0.00 0.00 67 1013.3
20260504042536 52 340 1.7 4.3 0.00 0.00 0.00 67 1013.4
20260504042032 52 34 1.7 3.5 0.00 0.00 0.00 67 1013.3
20260504041546 52 330 0.9 2.6 0.00 0.00 0.00 68 1013.4
20260504041032 51 32 0.9 1.7 0.00 0.00 0.00 68 1013.4
20260504040532 51 9 0.0 1.7 0.00 0.00 0.00 69 1013.5
20260504040126 51 14 0.0 2.6 0.00 0.00 0.00 69 1013.6
20260504035532 51 24 0.0 2.6 0.00 0.00 0.00 69 1013.6
20260504035033 51 31 0.9 1.7 0.00 0.00 0.00 68 1013.7
20260504034544 51 22 0.0 1.7 0.00 0.00 0.00 69 1013.7
20260504034035 51 13 0.0 1.7 0.00 0.00 0.00 69 1013.7
20260504033533 51 0 0.0 1.7 0.00 0.00 0.00 69 1013.8
20260504033048 51 0 0.0 1.7 0.00 0.00 0.00 69 1013.9
20260504032533 51 14 0.0 0.9 0.00 0.00 0.00 70 1013.8
20260504032032 51 0 0.0 0.9 0.00 0.00 0.00 70 1013.9
20260504031554 51 350 0.0 0.9 0.00 0.00 0.00 70 1013.8
20260504031035 51 19 0.0 0.9 0.00 0.00 0.00 71 1014.0
20260504030532 51 22 0.0 0.9 0.00 0.00 0.00 71 1014.0
20260504030045 50 311 0.0 1.7 0.00 0.00 0.00 71 1014.1
20260504025534 50 0 0.0 1.7 0.00 0.00 0.00 72 1014.2
20260504025032 50 35 0.0 1.7 0.00 0.00 0.00 72 1014.2
20260504024544 50 35 0.0 1.7 0.00 0.00 0.00 73 1014.3
20260504024036 50 36 0.0 0.9 0.00 0.00 0.00 72 1014.3
20260504023537 50 0 0.0 2.6 0.00 0.00 0.00 72 1014.3
20260504023049 50 0 0.0 2.6 0.00 0.00 0.00 73 1014.4
20260504022537 50 22 0.0 0.9 0.00 0.00 0.00 73 1014.3
20260504022037 50 0 0.0 1.7 0.00 0.00 0.00 73 1014.4
20260504021548 50 0 0.0 1.7 0.00 0.00 0.00 74 1014.3
20260504021037 50 0 0.0 0.9 0.00 0.00 0.00 74 1014.4
20260504020536 50 0 0.0 0.9 0.00 0.00 0.00 74 1014.3
20260504020100 50 0 0.0 1.7 0.00 0.00 0.00 75 1014.3
20260504015541 50 0 0.0 1.7 0.00 0.00 0.00 75 1014.2
20260504015037 49 39 0.0 1.7 0.00 0.00 0.00 76 1014.2
20260504014552 50 50 0.0 1.7 0.00 0.00 0.00 77 1014.4
20260504014038 50 343 0.0 1.7 0.00 0.00 0.00 76 1014.3
20260504013538 50 340 0.9 1.7 0.00 0.00 0.00 76 1014.4
20260504013046 50 0 0.0 1.7 0.00 0.00 0.00 76 1014.4
20260504012537 50 327 0.0 1.7 0.00 0.00 0.00 76 1014.2
20260504012040 50 48 0.0 0.9 0.00 0.00 0.00 75 1014.4
20260504011547 50 0 0.0 0.9 0.00 0.00 0.00 75 1014.4
20260504011037 50 0 0.0 0.9 0.00 0.00 0.00 75 1014.4
20260504010536 50 0 0.0 0.9 0.00 0.00 0.00 75 1014.5
20260504010054 50 0 0.0 0.9 0.00 0.00 0.00 75 1014.5
20260504005537 50 0 0.0 0.9 0.00 0.00 0.00 74 1014.4
20260504005042 50 0 0.0 0.9 0.00 0.00 0.00 74 1014.4
20260504004545 50 0 0.0 0.9 0.00 0.00 0.00 73 1014.3
20260504004038 50 0 0.0 0.9 0.00 0.00 0.00 73 1014.3
20260504003539 50 0 0.0 0.9 0.00 0.00 0.00 73 1014.3
20260504003046 50 0 0.0 0.9 0.00 0.00 0.00 72 1014.4
20260504002535 50 325 0.0 0.9 0.00 0.00 0.00 72 1014.4
20260504002035 50 0 0.0 0.9 0.00 0.00 0.00 72 1014.4
20260504001552 50 325 0.0 0.9 0.00 0.00 0.00 71 1014.3
20260504001035 50 0 0.0 0.9 0.00 0.00 0.00 71 1014.3
20260504000537 50 0 0.0 1.7 0.00 0.00 0.00 72 1014.2
20260504000050 50 331 0.0 1.7 0.00 0.00 0.00 72 1014.2
20260503235536 50 0 0.0 0.9 0.00 0.00 0.00 72 1014.3
20260503235037 50 0 0.0 0.9 0.00 0.00 0.00 73 1014.2
20260503234610 50 0 0.0 0.9 0.00 0.00 0.00 73 1014.1
20260503234035 50 293 0.0 0.9 0.00 0.00 0.00 73 1014.2
20260503233535 50 306 0.0 0.9 0.00 0.00 0.00 73 1014.4
20260503233051 50 0 0.0 0.9 0.00 0.00 0.00 74 1014.4
20260503232535 50 0 0.0 0.9 0.00 0.00 0.00 74 1014.4
20260503232036 50 0 0.0 0.9 0.00 0.00 0.00 74 1014.6
20260503231549 50 0 0.0 0.9 0.00 0.00 0.00 75 1014.6
20260503231036 50 30 0.0 0.9 0.00 0.00 0.00 75 1014.8
20260503230539 50 285 0.0 0.9 0.00 0.00 0.00 75 1014.8
20260503230048 50 0 0.0 0.9 0.00 0.00 0.00 76 1015.1
20260503225536 50 0 0.0 0.0 0.00 0.00 0.00 77 1015.2
20260503225036 50 0 0.0 0.9 0.00 0.00 0.00 76 1015.1
20260503224547 49 0 0.0 0.9 0.00 0.00 0.00 76 1015.3
20260503224037 49 0 0.0 0.9 0.00 0.00 0.00 76 1015.5
20260503223537 49 0 0.0 0.9 0.00 0.00 0.00 76 1015.6
20260503223049 49 0 0.0 0.0 0.00 0.00 0.00 76 1015.9
20260503222538 49 0 0.0 0.0 0.00 0.00 0.00 76 1016.0
20260503222036 49 0 0.0 0.9 0.00 0.00 0.00 76 1015.9
20260503221554 49 0 0.0 0.9 0.00 0.00 0.00 76 1016.0
20260503221036 50 315 0.0 0.9 0.00 0.00 0.00 76 1016.3
20260503220537 50 331 0.0 0.9 0.00 0.00 0.00 74 1016.4
20260503220048 50 331 0.0 0.9 0.00 0.00 0.00 71 1016.4